| time (UTC) | temp F | wind direction | speed knots | gust knots | rain 1hr in | rain 24hr in | rain mn in | humidity % | barometer mb |
| 20260902224526 | 100 | 356 | 4.3 | 9.6 | 0.00 | 0.00 | 0.00 | 34 | 1002.4 |
| 20260902223025 | 100 | 36 | 2.6 | 10.4 | 0.00 | 0.00 | 0.00 | 35 | 1002.4 |
| 20260902221523 | 100 | 33 | 4.3 | 12.2 | 0.00 | 0.00 | 0.00 | 36 | 1002.5 |
| 20260902220021 | 99 | 18 | 3.5 | 12.2 | 0.00 | 0.00 | 0.00 | 36 | 1002.6 |
| 20260902214521 | 100 | 37 | 3.5 | 7.0 | 0.00 | 0.00 | 0.00 | 35 | 1002.7 |
| 20260902213019 | 100 | 53 | 6.1 | 9.6 | 0.00 | 0.00 | 0.00 | 38 | 1002.8 |
| 20260902211523 | 99 | 342 | 1.7 | 14.8 | 0.00 | 0.00 | 0.00 | 38 | 1003.0 |
| 20260902210017 | 100 | 51 | 3.5 | 7.8 | 0.00 | 0.00 | 0.00 | 38 | 1003.1 |
| 20260902204514 | 100 | 359 | 4.3 | 10.4 | 0.00 | 0.00 | 0.00 | 37 | 1003.3 |
| 20260902203014 | 100 | 25 | 5.2 | 12.2 | 0.00 | 0.00 | 0.00 | 39 | 1003.5 |
| 20260902201511 | 100 | 18 | 0.9 | 9.6 | 0.00 | 0.00 | 0.00 | 36 | 1003.6 |
| 20260902200008 | 100 | 4 | 1.7 | 7.0 | 0.00 | 0.00 | 0.00 | 38 | 1004.0 |
| 20260902194509 | 99 | 25 | 7.0 | 9.6 | 0.00 | 0.00 | 0.00 | 39 | 1004.2 |
| 20260902193003 | 98 | 304 | 0.9 | 7.8 | 0.00 | 0.00 | 0.00 | 42 | 1004.4 |
| 20260902191559 | 98 | 94 | 2.6 | 7.0 | 0.00 | 0.00 | 0.00 | 42 | 1004.7 |
| 20260902190058 | 97 | 39 | 5.2 | 8.7 | 0.00 | 0.00 | 0.00 | 43 | 1005.0 |
| 20260902184559 | 98 | 28 | 2.6 | 13.9 | 0.00 | 0.00 | 0.00 | 43 | 1005.2 |
| 20260902183053 | 97 | 328 | 4.3 | 9.6 | 0.00 | 0.00 | 0.00 | 44 | 1005.4 |
| 20260902181549 | 97 | 316 | 3.5 | 8.7 | 0.00 | 0.00 | 0.00 | 45 | 1005.7 |
| 20260902174542 | 96 | 305 | 3.5 | 8.7 | 0.00 | 0.00 | 0.00 | 47 | 1006.3 |
| 20260902173038 | 94 | 29 | 0.0 | 9.6 | 0.00 | 0.00 | 0.00 | 50 | 1006.5 |
| 20260902171537 | 94 | 314 | 2.6 | 7.0 | 0.00 | 0.00 | 0.00 | 50 | 1006.9 |
| 20260902170038 | 93 | 281 | 3.5 | 6.1 | 0.00 | 0.00 | 0.00 | 52 | 1007.1 |
| 20260902164533 | 93 | 321 | 2.6 | 7.0 | 0.00 | 0.00 | 0.00 | 52 | 1007.3 |
| 20260902163031 | 93 | 313 | 0.0 | 5.2 | 0.00 | 0.00 | 0.00 | 54 | 1007.5 |
| 20260902161541 | 92 | 360 | 0.0 | 3.5 | 0.00 | 0.00 | 0.00 | 55 | 1007.5 |
| 20260902160026 | 89 | 121 | 0.0 | 4.3 | 0.00 | 0.00 | 0.00 | 59 | 1007.6 |
| 20260902154530 | 89 | 320 | 2.6 | 6.1 | 0.00 | 0.00 | 0.00 | 60 | 1007.6 |
| 20260902153024 | 89 | 349 | 0.9 | 3.5 | 0.00 | 0.00 | 0.00 | 60 | 1007.6 |
| 20260902151521 | 88 | 117 | 0.0 | 2.6 | 0.00 | 0.00 | 0.00 | 63 | 1007.6 |
| 20260902150019 | 87 | 103 | 1.7 | 4.3 | 0.00 | 0.00 | 0.00 | 64 | 1007.7 |
| 20260902144528 | 86 | 106 | 0.9 | 4.3 | 0.00 | 0.00 | 0.00 | 66 | 1007.8 |
| 20260902143016 | 84 | 46 | 0.9 | 4.3 | 0.00 | 0.00 | 0.00 | 69 | 1007.8 |
| 20260902141519 | 83 | 110 | 1.7 | 3.5 | 0.00 | 0.00 | 0.00 | 70 | 1007.8 |
| 20260902140015 | 83 | 37 | 0.0 | 0.9 | 0.00 | 0.00 | 0.00 | 71 | 1007.7 |
| 20260902134518 | 81 | 37 | 0.0 | 0.0 | 0.00 | 0.00 | 0.00 | 75 | 1007.7 |
| 20260902133004 | 79 | 37 | 0.0 | 0.0 | 0.00 | 0.00 | 0.00 | 77 | 1007.6 |
| 20260902131509 | 78 | 37 | 0.0 | 0.9 | 0.00 | 0.00 | 0.00 | 78 | 1007.6 |
| 20260902130002 | 0 | 0.0 | 0.0 | 0.00 | 0.00 | 0.00 | 1007.3 | ||
| 20260902124603 | 0 | 0.0 | 0.0 | 0.00 | 0.00 | 0.00 | 1007.3 | ||
| 20260902123059 | 0 | 0.0 | 0.0 | 0.00 | 0.00 | 0.00 | 1007.0 | ||
| 20260902121559 | 0 | 0.0 | 0.0 | 0.00 | 0.00 | 0.00 | 1006.9 | ||
| 20260902120045 | 0 | 0.0 | 0.0 | 0.00 | 0.00 | 0.00 | 1006.9 | ||
| 20260902114541 | 0 | 0.0 | 0.0 | 0.00 | 0.00 | 0.00 | 1006.8 | ||
| 20260902113044 | 0 | 0.0 | 0.0 | 0.00 | 0.00 | 0.00 | 1006.7 | ||
| 20260902111532 | 0 | 0.0 | 0.0 | 0.00 | 0.00 | 0.00 | 1006.9 | ||
| 20260902110029 | 0 | 0.0 | 0.0 | 0.00 | 0.00 | 0.00 | 1006.9 | ||
| 20260902104524 | 0 | 0.0 | 0.0 | 0.00 | 0.00 | 0.00 | 1006.9 | ||
| 20260902103027 | 0 | 0.0 | 0.0 | 0.00 | 0.00 | 0.00 | 1006.7 | ||
| 20260902101519 | 0 | 0.0 | 0.0 | 0.00 | 0.00 | 0.00 | 1006.6 | ||
| 20260902100015 | 0 | 0.0 | 0.0 | 0.00 | 0.00 | 0.00 | 1006.5 | ||
| 20260902094506 | 77 | 179 | 0.0 | 0.0 | 0.00 | 0.00 | 0.00 | 76 | 1006.6 |
| 20260902093003 | 78 | 177 | 0.0 | 0.0 | 0.00 | 0.00 | 0.00 | 77 | 1006.7 |
| 20260902091501 | 78 | 177 | 0.0 | 0.0 | 0.00 | 0.00 | 0.00 | 75 | 1006.8 |
| 20260902090000 | 79 | 177 | 0.0 | 0.0 | 0.00 | 0.00 | 0.00 | 74 | 1006.8 |
| 20260902084610 | 79 | 178 | 0.0 | 0.9 | 0.00 | 0.00 | 0.00 | 74 | 1006.8 |
| 20260902083059 | 79 | 177 | 0.0 | 0.0 | 0.00 | 0.00 | 0.00 | 75 | 1006.8 |
| 20260902081604 | 79 | 177 | 0.0 | 0.0 | 0.00 | 0.00 | 0.00 | 75 | 1006.8 |
| 20260902080055 | 79 | 177 | 0.9 | 2.6 | 0.00 | 0.00 | 0.00 | 74 | 1006.9 |
| 20260902074553 | 80 | 155 | 0.0 | 1.7 | 0.00 | 0.00 | 0.00 | 74 | 1007.1 |
| 20260902073055 | 80 | 138 | 0.0 | 1.7 | 0.00 | 0.00 | 0.00 | 73 | 1007.1 |
| 20260902071549 | 81 | 138 | 0.0 | 1.7 | 0.00 | 0.00 | 0.00 | 72 | 1007.1 |
| 20260902070048 | 81 | 139 | 0.0 | 2.6 | 0.00 | 0.00 | 0.00 | 73 | 1007.2 |
| 20260902064552 | 81 | 149 | 0.0 | 0.0 | 0.00 | 0.00 | 0.00 | 72 | 1007.3 |
| 20260902063052 | 81 | 156 | 0.0 | 1.7 | 0.00 | 0.00 | 0.00 | 72 | 1007.5 |
| 20260902060042 | 82 | 144 | 0.0 | 3.5 | 0.00 | 0.00 | 0.00 | 70 | 1007.4 |
| 20260902054547 | 82 | 117 | 0.0 | 1.7 | 0.00 | 0.00 | 0.00 | 69 | 1007.1 |
| 20260902053044 | 82 | 134 | 1.7 | 3.5 | 0.00 | 0.00 | 0.00 | 69 | 1007.1 |
| 20260902051538 | 83 | 131 | 0.9 | 3.5 | 0.00 | 0.00 | 0.00 | 67 | 1007.1 |
| 20260902050034 | 83 | 167 | 1.7 | 5.2 | 0.00 | 0.00 | 0.00 | 67 | 1007.0 |
| 20260902044533 | 84 | 146 | 2.6 | 7.8 | 0.00 | 0.00 | 0.00 | 66 | 1007.0 |
| 20260902043032 | 84 | 135 | 2.6 | 6.1 | 0.00 | 0.00 | 0.00 | 65 | 1007.1 |
| 20260902041534 | 85 | 129 | 2.6 | 7.8 | 0.00 | 0.00 | 0.00 | 64 | 1007.0 |
| 20260902040033 | 86 | 115 | 4.3 | 9.6 | 0.00 | 0.00 | 0.00 | 62 | 1006.9 |
| 20260902034530 | 86 | 114 | 5.2 | 10.4 | 0.00 | 0.00 | 0.00 | 62 | 1006.8 |
| 20260902033029 | 87 | 127 | 6.1 | 11.3 | 0.00 | 0.00 | 0.00 | 61 | 1006.6 |
| 20260902031529 | 88 | 104 | 6.1 | 10.4 | 0.00 | 0.00 | 0.00 | 57 | 1006.5 |
| 20260902030028 | 89 | 105 | 5.2 | 11.3 | 0.00 | 0.00 | 0.00 | 55 | 1006.1 |
| 20260902024527 | 89 | 107 | 0.0 | 3.5 | 0.00 | 0.00 | 0.00 | 53 | 1005.9 |
| 20260902023037 | 89 | 106 | 0.9 | 3.5 | 0.00 | 0.00 | 0.00 | 53 | 1005.4 |
| 20260902021526 | 90 | 106 | 0.0 | 0.9 | 0.00 | 0.00 | 0.00 | 51 | 1005.2 |
| 20260902020026 | 90 | 106 | 0.0 | 2.6 | 0.00 | 0.00 | 0.00 | 50 | 1005.0 |
| 20260902014536 | 91 | 106 | 0.0 | 2.6 | 0.00 | 0.00 | 0.00 | 49 | 1004.8 |
| 20260902013024 | 92 | 106 | 0.0 | 2.6 | 0.00 | 0.00 | 0.00 | 47 | 1004.7 |
| 20260902011539 | 92 | 106 | 0.0 | 3.5 | 0.00 | 0.00 | 0.00 | 46 | 1004.7 |
| 20260902010023 | 93 | 106 | 1.7 | 3.5 | 0.00 | 0.00 | 0.00 | 45 | 1004.6 |
| 20260902004523 | 94 | 106 | 1.7 | 5.2 | 0.00 | 0.00 | 0.00 | 44 | 1004.5 |
| 20260902003021 | 95 | 103 | 2.6 | 6.1 | 0.00 | 0.00 | 0.00 | 43 | 1004.6 |
| 20260902001523 | 95 | 63 | 4.3 | 7.8 | 0.00 | 0.00 | 0.00 | 43 | 1004.7 |
| 20260902000019 | 96 | 90 | 4.3 | 7.0 | 0.00 | 0.00 | 0.00 | 43 | 1004.7 |
| 20260901234519 | 96 | 148 | 4.3 | 8.7 | 0.00 | 0.00 | 0.00 | 42 | 1004.7 |
| 20260901233019 | 96 | 50 | 4.3 | 8.7 | 0.00 | 0.00 | 0.00 | 41 | 1004.8 |
| 20260901231518 | 96 | 53 | 5.2 | 11.3 | 0.00 | 0.00 | 0.00 | 42 | 1004.9 |
| 20260901230017 | 96 | 119 | 3.5 | 7.8 | 0.00 | 0.00 | 0.00 | 41 | 1004.9 |